Regional Weather Roundup
Issued by NWS

Home | Current Version | Previous Version | Text Only | Print | Product List | Glossary On
Versions: 1 2 3 4 5 6 7 8 9 10 11 12 13 14 15 16 17 18 19 20 21 22 23 24 25 26 27 28 29 30 31 32 33 34 35 36 37 38 39 40 41 42 43 44 45 46 47 48 49 50
153
ASUS44 KLIX 261905
RWRLA
LOUISIANA WEATHER ROUNDUP
NATIONAL WEATHER SERVICE NEW ORLEANS LA
100 PM CST MON JAN 26 2015

NOTE: "FAIR" INDICATES FEW OR NO CLOUDS BELOW 12,000 FEET WITH NO
      SIGNIFICANT WEATHER AND/OR OBSTRUCTIONS TO VISIBILITY.
      SKY/WX - SKY CONDITION AND SIGNIFICANT WEATHER.
      TMP - AIR TEMPERATURE.    DP   - DEWPOINT TEMPERATURE.
      RH  - RELATIVE HUMIDITY.  PRES - PRESSURE.
      HX  - HEAT INDEX.         WCI  - WIND CHILL INDEX.

*  THESE STATIONS ARE NOT NWS OR FAA STATIONS AND ARE NOT UNDER
   NWS QUALITY CONTROL.

LAZ040-048-061>063-065-066-069-262000-
SOUTHEAST LOUISIANA

CITY           SKY/WX    TMP DP  RH WIND       PRES   REMARKS
N.O. AUDUBON   NOT AVBL
N.O. INTL ARPT MOSUNNY   58  36  43 N14       30.08F
N.O. LAKEFRONT SUNNY     57  41  55 NW8       30.09F
N.O. DOWNTOWN* FAIR      57  34  41 N10G18    30.08F
SLIDELL        SUNNY     62  35  36 N13G21    30.05F
BATON ROUGE    SUNNY     60  33  36 NW12      30.10F
BOOTHVILLE     SUNNY     54  39  57 NW14      30.08F
BELLE CHASSE   MOSUNNY   59  34  39 N8G18     30.07F
BOGALUSA*        N/A     59  34  39 N14G20    30.09F
GALLIANO*      CLEAR     62  37  39 MISG      30.09F
NEW ROADS*     FAIR      56  37  48 NW12      30.12F
GONZALES*      FAIR      60  35  39 W10       30.10S
HAMMOND*       SUNNY     61  30  31 NW14      30.09F
HOUMA*         SUNNY     61  37  41 NW10      30.09F
PORT FOURCHON* CLEAR     55  39  54 W10       30.13F

$$

LAZ041-044-053-054-262000-
SOUTHWEST LOUISIANA

CITY           SKY/WX    TMP DP  RH WIND       PRES   REMARKS
LAKE CHARLES   SUNNY     61  34  36 NW10      30.15F
LAFAYETTE      SUNNY     59  37  44 NW7       30.13F
PATTERSON      SUNNY     59  36  41 N12       30.12F
SALT POINT       N/A     56  43  61 W8        30.11F
NEW IBERIA     SUNNY     60  37  42 NW15      30.13F
CHENAULT AIRPK NOT AVBL

$$

LAZ027-028-262000-
CENTRAL LOUISIANA

CITY           SKY/WX    TMP DP  RH WIND       PRES   REMARKS
FORT POLK      SUNNY     60  34  37 N9        30.12F
ALEXANDRIA INT SUNNY     57  35  43 NW13      30.12F
ALEXANDRIA     SUNNY     59  34  39 NE8       30.12F

$$

LAZ001-002-262000-
NORTHWEST LOUISIANA

CITY           SKY/WX    TMP DP  RH WIND       PRES   REMARKS
SHREVEPORT     SUNNY     59  32  36 N6        30.13F
BARKSDALE AFB  SUNNY     57  33  39 N8        30.14F
DTN SHREVEPORT SUNNY     57  32  38 N5        30.14F

$$

LAZ014-016-262000-
NORTHEAST LOUISIANA

CITY           SKY/WX    TMP DP  RH WIND       PRES   REMARKS
MONROE         SUNNY     55  35  47 W8        30.13F
TALLULAH       SUNNY     52  36  54 VRB5      30.14F

$$




USA.gov is the U.S. government's official web portal to all federal, state and local government web resources and services.